Zurück zum Katalog

STARLINK-35444

AktivKommunikationVLEO
NORAD 66511·PAYLOAD·🇺🇸 United States

Gestartet Nov 15, 2025 von Cape Canaveral Space Force Station

Loading…

Nächste Überflüge (nächste 24 Stunden)

TLE

AktuellSource: CelesTrak SupGP

Epoche: Sep 15, 2026, 03:39 UTC

1 66511C 25263AC  26258.15256944  .00043134  00000+0  15622-2 0  2586
2 66511  43.0035   0.5748 0001491 263.2617 192.2207 15.27559196    16

Verfolge STARLINK-35444 in Echtzeit mit AllMySat

Download on the App Store